This is the latest recevied weather packets stored in our database for station/object N5AJY. If no packets are shown the sender has not sent any weather packets the latest 10 day(s).
| Time | Temp. | Humidity | Pressure | Rain* | Wind** | Luminosity | Snow |
|---|---|---|---|---|---|---|---|
| 1777074104 | 22.22° C | 73% | 1002.7 hPa | 0 mm | - | - | - |
| 1777073803 | 22.22° C | 75% | 1002.8 hPa | 0 mm | - | - | - |
| 1777073504 | 22.22° C | 75% | 1003 hPa | 0 mm | - | - | - |
| 1777073203 | 22.22° C | 75% | 1003 hPa | 0 mm | - | - | - |
| 1777072906 | 22.22° C | 73% | 1003 hPa | 0 mm | - | - | - |
| 1777072604 | 22.78° C | 72% | 1003.1 hPa | 0 mm | - | - | - |
| 1777072306 | 22.78° C | 73% | 1003.1 hPa | 0 mm | - | - | - |
| 1777072004 | 22.78° C | 71% | 1003 hPa | 0 mm | - | - | - |
| 1777071105 | 22.22° C | 73% | 1002.6 hPa | 0 mm | - | - | - |
| 1777070803 | 22.22° C | 73% | 1002.6 hPa | 0 mm | - | - | - |
| 1777070503 | 22.78° C | 74% | 1002.4 hPa | 0 mm | - | - | - |
| 1777070204 | 22.78° C | 74% | 1002.5 hPa | 0 mm | - | - | - |
| 1777069305 | 22.78° C | 74% | 1002.7 hPa | 0 mm | - | - | - |
| 1777069004 | 22.78° C | 72% | 1002.7 hPa | 0 mm | - | - | - |
| 1777068702 | 22.78° C | 73% | 1002.7 hPa | 0 mm | - | - | - |
| 1777068403 | 22.78° C | 72% | 1002.6 hPa | 0 mm | - | - | - |
| 1777068106 | 22.78° C | 72% | 1002.8 hPa | 0 mm | - | - | - |
| 1777067804 | 22.78° C | 73% | 1002.7 hPa | 0 mm | - | - | - |
| 1777067510 | 22.22° C | 73% | 1002.7 hPa | 0 mm | - | - | - |
| 1777067204 | 22.22° C | 73% | 1002.8 hPa | 0 mm | - | - | - |
| 1777066905 | 22.22° C | 76% | 1002.9 hPa | 0 mm | - | - | - |
| 1777066603 | 22.22° C | 76% | 1002.9 hPa | 0 mm | - | - | - |
| 1777066003 | 22.22° C | 77% | 1002.9 hPa | 0 mm | - | - | - |
| 1777065704 | 22.22° C | 76% | 1003 hPa | 0 mm | - | - | - |
| 1777065403 | 22.22° C | 77% | 1003 hPa | 0 mm | - | - | - |
* Rain latest hour (hover to see other rain measurements)
** Current wind speed in m/s (hover to see current wind gust speed)